Location: Cheching
(60.0667°N, 164.2167°W)
Time: 22:11:35
(UTC+00:00)

LilacSat-2 - Pass Details

Date: 20 January 2021
Orbit: 512 x 534 km, 97.5° (Epoch: 07 March)

Event Time Altitude Azimuth Distance (km) Brightness Sun altitude
Rises 16:04:07 0° 22° (NNE) 2,685 ? -25.2°
Reaches altitude 10° 16:06:32 10° 36° (NE) 1,794 ? -24.9°
Maximum altitude 16:09:44 24° 92° (E) 1,134 ? -24.5°
Drops below altitude 10° 16:12:55 10° 148° (SSE) 1,789 ? -24.1°
Sets 16:15:20 0° 162° (SSE) 2,677 ? -23.8°
